GW1020 Weather Reports


time (UTC)temp
F
wind
direction
speed
knots
gust
knots
rain 1hr
in
rain 24hr
in
rain mn
in
humidity
%
barometer
mb
20260507072705 48 311 3.5 7.0 0.01 0.33 0.17 92 1013.7
20260507072204 48 314 3.5 7.0 0.02 0.33 0.17 92 1013.7
20260507071704 48 311 4.3 7.8 0.02 0.33 0.17 92 1013.6
20260507071204 48 287 4.3 7.8 0.02 0.33 0.17 92 1013.6
20260507070704 48 302 3.5 7.8 0.02 0.33 0.17 93 1013.6
20260507070205 48 300 3.5 7.8 0.03 0.33 0.17 93 1013.5
20260507065704 48 306 4.3 7.8 0.03 0.33 0.17 93 1013.4
20260507064704 48 304 4.3 7.8 0.03 0.33 0.17 93 1013.3
20260507064205 48 292 3.5 7.0 0.04 0.33 0.17 93 1013.3
20260507063705 48 296 2.6 6.1 0.04 0.33 0.17 93 1013.3
20260507063204 48 291 2.6 6.1 0.04 0.32 0.17 93 1013.1
20260507062705 48 302 3.5 6.1 0.04 0.32 0.17 93 1013.1
20260507062204 48 269 3.5 6.1 0.03 0.31 0.16 93 1013.0
20260507061704 48 294 3.5 6.1 0.04 0.31 0.16 93 1013.0
20260507061204 48 304 3.5 5.2 0.04 0.31 0.15 93 1013.0
20260507060705 48 328 2.6 6.1 0.04 0.31 0.15 93 1012.8
20260507060204 48 269 2.6 6.1 0.03 0.30 0.14 92 1012.7
20260507055704 48 314 2.6 6.1 0.03 0.30 0.14 93 1012.8
20260507055205 49 296 2.6 6.1 0.04 0.30 0.14 93 1012.7
20260507054721 48 275 3.5 7.8 0.04 0.30 0.14 93 1012.6
20260507054204 48 275 3.5 7.8 0.04 0.29 0.13 93 1012.6
20260507053704 49 250 2.6 7.8 0.04 0.29 0.13 93 1012.5
20260507053204 49 283 3.5 6.1 0.03 0.28 0.13 93 1012.5
20260507051205 48 298 4.3 8.7 0.03 0.28 0.12 92 1012.3
20260507050705 48 292 4.3 8.7 0.02 0.27 0.11 92 1012.2
20260507050205 49 287 4.3 8.7 0.02 0.27 0.11 92 1012.1
20260507045704 49 287 4.3 8.7 0.02 0.26 0.10 93 1012.0
20260507044704 49 213 2.6 6.1 0.02 0.26 0.10 93 1011.9
20260507044205 49 250 3.5 6.1 0.02 0.25 0.09 93 1011.9
20260507043705 49 219 3.5 8.7 0.02 0.25 0.09 93 1011.8
20260507043204 49 221 3.5 8.7 0.02 0.25 0.09 93 1011.7
20260507042704 49 202 3.5 8.7 0.02 0.25 0.09 93 1011.7
20260507042205 49 246 3.5 7.8 0.02 0.25 0.09 93 1011.6
20260507041205 49 261 3.5 7.8 0.02 0.24 0.09 92 1011.5
20260507040705 49 227 2.6 7.0 0.02 0.24 0.09 93 1011.4
20260507040222 49 237 3.5 7.0 0.02 0.24 0.09 92 1011.4
20260507035705 49 248 3.5 7.0 0.02 0.24 0.09 92 1011.4
20260507035206 49 245 3.5 8.7 0.02 0.24 0.09 92 1011.3
20260507034705 49 219 3.5 8.7 0.02 0.24 0.09 92 1011.3
20260507034205 49 273 4.3 9.6 0.02 0.24 0.08 92 1011.2
20260507033705 49 259 4.3 9.6 0.02 0.24 0.08 92 1011.2
20260507032705 49 240 6.1 12.2 0.02 0.24 0.08 92 1011.0
20260507032205 49 239 6.1 12.2 0.02 0.24 0.08 93 1011.0
20260507031705 49 203 5.2 12.2 0.02 0.24 0.07 92 1010.9
20260507031205 49 214 3.5 7.0 0.01 0.23 0.07 93 1010.8
20260507030705 49 204 2.6 6.1 0.01 0.23 0.07 93 1010.8
20260507030205 49 207 2.6 6.1 0.01 0.23 0.07 93 1010.7
20260507025705 49 212 2.6 6.1 0.01 0.23 0.07 93 1010.7
20260507025205 49 214 2.6 6.1 0.01 0.23 0.07 93 1010.7
20260507024704 49 185 1.7 5.2 0.01 0.22 0.06 93 1010.6
20260507024205 49 219 1.7 5.2 0.01 0.22 0.06 93 1010.6
20260507023704 49 197 1.7 6.1 0.02 0.22 0.06 93 1010.6
20260507023231 49 194 1.7 6.1 0.02 0.22 0.06 93 1010.6
20260507022704 49 196 1.7 6.1 0.02 0.22 0.06 93 1010.6
20260507021205 49 204 1.7 5.2 0.03 0.22 0.06 93 1010.4
20260507020705 49 205 1.7 4.3 0.04 0.22 0.06 93 1010.4
20260507015704 49 185 0.9 4.3 0.05 0.22 0.06 93 1010.3
20260507015204 49 185 1.7 4.3 0.04 0.21 0.06 92 1010.3
20260507013705 49 227 0.9 2.6 0.03 0.20 0.05 92 1010.3
20260507013205 49 227 0.0 2.6 0.03 0.20 0.05 92 1010.2
20260507012705 49 227 0.9 2.6 0.03 0.20 0.05 92 1010.2
20260507011705 49 227 0.0 1.7 0.02 0.19 0.03 92 1010.2
20260507011205 49 227 0.0 1.7 0.02 0.19 0.03 92 1010.2
20260507010705 49 227 0.0 1.7 0.01 0.18 0.02 92 1010.2
20260507005705 49 227 0.0 1.7 0.00 0.17 0.02 92 1010.2
20260507004705 49 227 0.0 0.9 0.00 0.17 0.02 92 1010.2
20260507004205 49 227 0.0 1.7 0.00 0.17 0.02 92 1010.2
20260507003204 49 227 0.9 2.6 0.00 0.17 0.02 92 1010.1
20260507002704 49 227 0.9 2.6 0.00 0.17 0.02 92 1010.1
20260507001704 49 227 0.9 2.6 0.00 0.17 0.02 91 1010.1
20260507001204 49 227 0.9 4.3 0.00 0.17 0.02 91 1010.1
20260507000704 49 227 1.7 4.3 0.00 0.17 0.02 91 1010.1
20260507000205 49 227 0.9 4.3 0.00 0.17 0.02 91 1010.0
20260506235704 49 192 0.9 2.6 0.01 0.17 0.02 92 1010.1
20260506235204 50 193 0.9 2.6 0.01 0.17 0.02 92 1010.1
20260506234704 50 193 0.9 2.6 0.01 0.17 0.02 92 1010.1
20260506234204 50 193 0.9 2.6 0.01 0.18 0.02 92 1010.1
20260506233704 50 193 0.9 3.5 0.01 0.18 0.02 91 1010.2
20260506233204 50 193 0.9 3.5 0.01 0.18 0.02 91 1010.2
20260506232732 50 193 0.9 3.5 0.02 0.18 0.02 91 1010.2
20260506231705 50 215 2.6 8.7 0.02 0.18 0.02 91 1010.2
20260506231205 50 209 3.5 8.7 0.02 0.18 0.02 90 1010.3
20260506230705 50 222 3.5 8.7 0.02 0.18 0.02 90 1010.3
20260506230205 50 223 3.5 10.4 0.02 0.18 0.02 90 1010.2
20260506225705 50 238 3.5 10.4 0.01 0.17 0.01 90 1010.2
20260506223706 50 222 1.7 5.2 0.01 0.17 0.01 91 1010.1
20260506223205 50 194 2.6 6.1 0.01 0.17 0.01 91 1010.1
20260506222704 51 192 2.6 6.1 0.00 0.17 0.00 91 1010.0
20260506222204 51 236 2.6 6.1 0.00 0.17 0.00 91 1010.1
20260506221705 51 207 2.6 6.1 0.00 0.17 0.00 91 1010.0
20260506221204 51 224 2.6 4.3 0.00 0.17 0.00 91 1009.9
20260506220205 51 190 1.7 4.3 0.00 0.17 0.17 92 1009.9
20260506215704 51 205 0.9 4.3 0.00 0.17 0.17 92 1009.8
20260506215204 51 198 1.7 3.5 0.01 0.17 0.17 92 1009.7
20260506214704 51 197 0.9 3.5 0.01 0.17 0.17 92 1009.7
20260506214205 51 200 0.9 3.5 0.01 0.17 0.17 92 1009.7
20260506213704 51 201 0.9 4.3 0.02 0.17 0.17 92 1009.6
20260506213204 51 201 1.7 4.3 0.02 0.17 0.17 92 1009.6
20260506212705 51 206 1.7 4.3 0.02 0.17 0.17 92 1009.6
20260506212205 51 205 1.7 4.3 0.02 0.17 0.17 92 1009.4
20260506211704 51 200 0.9 4.3 0.02 0.17 0.17 92 1009.4
20260506210705 51 211 1.7 5.2 0.03 0.17 0.17 92 1009.3
20260506205705 51 184 1.7 4.3 0.03 0.16 0.16 92 1009.3
20260506205205 51 209 1.7 5.2 0.04 0.16 0.16 92 1009.3
20260506204705 51 197 1.7 5.2 0.05 0.16 0.16 92 1009.3
20260506204205 51 215 1.7 4.3 0.05 0.15 0.15 92 1009.3
20260506203704 51 217 0.9 4.3 0.06 0.15 0.15 92 1009.2
20260506203204 51 182 0.9 4.3 0.06 0.15 0.15 92 1009.3
20260506202705 51 193 0.9 3.5 0.06 0.15 0.15 92 1009.2
20260506202205 51 196 0.9 5.2 0.06 0.15 0.15 92 1009.2
20260506201705 51 198 0.9 5.2 0.06 0.14 0.14 92 1009.2
20260506201205 51 200 1.7 5.2 0.06 0.13 0.13 92 1009.2
20260506200705 51 213 1.7 5.2 0.06 0.13 0.13 92 1009.2
20260506200205 52 202 1.7 4.3 0.06 0.13 0.13 92 1009.2
20260506195705 52 211 1.7 4.3 0.06 0.12 0.12 92 1009.1
20260506195205 52 184 1.7 4.3 0.06 0.12 0.12 92 1009.1
20260506193704 52 189 1.7 4.3 0.05 0.09 0.09 92 1008.8
20260506193205 52 208 1.7 4.3 0.05 0.09 0.09 92 1008.7
20260506192705 52 198 1.7 6.1 0.05 0.09 0.09 91 1008.6
20260506192205 52 194 1.7 6.1 0.05 0.09 0.09 91 1008.5
20260506191705 52 209 2.6 6.1 0.04 0.08 0.08 91 1008.4
20260506191205 53 182 2.6 6.1 0.03 0.07 0.07 91 1008.4
20260506190705 53 182 2.6 6.1 0.04 0.07 0.07 91 1008.3
20260506190205 53 184 1.7 5.2 0.03 0.06 0.06 91 1008.2
20260506185204 53 206 2.6 6.1 0.03 0.06 0.06 91 1008.0
20260506184704 53 186 1.7 5.2 0.03 0.06 0.06 90 1007.9
20260506183704 53 213 1.7 5.2 0.02 0.05 0.05 90 1007.8
20260506183204 54 192 1.7 5.2 0.02 0.04 0.04 90 1007.8
20260506182705 54 186 1.7 4.3 0.02 0.04 0.04 90 1007.7
20260506181705 54 188 0.9 4.3 0.02 0.04 0.04 89 1007.6
20260506181205 54 203 0.9 5.2 0.02 0.05 0.04 89 1007.6
20260506180705 54 184 1.7 5.2 0.01 0.04 0.03 89 1007.6
20260506180204 54 175 1.7 3.5 0.01 0.05 0.03 88 1007.6
20260506175204 55 208 0.9 3.5 0.00 0.06 0.02 88 1007.6
20260506174704 55 213 0.9 2.6 0.00 0.06 0.02 88 1007.5
20260506174205 55 219 0.9 3.5 0.00 0.06 0.02 87 1007.4
20260506173704 55 219 0.9 5.2 0.00 0.06 0.02 87 1007.3
20260506173204 55 219 1.7 5.2 0.00 0.06 0.02 87 1007.4
20260506172704 55 221 1.7 5.2 0.00 0.06 0.02 87 1007.4
20260506172205 55 224 1.7 4.3 0.00 0.06 0.02 87 1007.4
20260506171204 55 226 0.9 4.3 0.00 0.06 0.02 87 1007.3
20260506170705 55 226 1.7 4.3 0.00 0.06 0.02 87 1007.3
20260506165205 55 219 0.9 4.3 0.00 0.06 0.02 87 1007.2
20260506164204 55 225 1.7 6.1 0.00 0.06 0.02 86 1007.3
20260506163704 56 288 2.6 7.0 0.00 0.06 0.02 86 1007.3
20260506163204 55 275 3.5 7.0 0.00 0.06 0.02 85 1007.3
20260506162705 56 234 2.6 7.0 0.00 0.06 0.02 84 1007.3
20260506162220 56 213 2.6 7.0 0.00 0.06 0.02 84 1007.3
20260506161705 56 233 2.6 9.6 0.00 0.06 0.02 84 1007.3
20260506161207 56 237 3.5 9.6 0.00 0.06 0.02 84 1007.2
20260506160705 56 224 3.5 9.6 0.00 0.06 0.02 84 1007.2
20260506160232 56 245 2.6 6.1 0.00 0.06 0.02 85 1007.1
20260506155732 56 281 2.6 6.1 0.00 0.06 0.02 85 1007.1
20260506155204 56 218 2.6 6.1 0.00 0.06 0.02 85 1007.1
20260506154704 56 229 2.6 5.2 0.00 0.06 0.02 85 1007.1
20260506154205 56 227 2.6 5.2 0.00 0.06 0.02 85 1007.0
20260506153204 56 221 2.6 7.0 0.00 0.06 0.02 86 1007.0
20260506152704 56 243 3.5 7.0 0.00 0.06 0.02 85 1007.0
20260506152205 56 298 3.5 7.0 0.00 0.07 0.02 84 1006.9
20260506151704 56 281 3.5 9.6 0.00 0.07 0.02 85 1006.9
20260506151204 56 275 4.3 9.6 0.00 0.08 0.02 85 1006.9
20260506150705 56 221 4.3 9.6 0.00 0.08 0.02 84 1006.9
20260506150204 56 289 4.3 10.4 0.00 0.08 0.02 85 1006.8
20260506145704 56 285 4.3 11.3 0.00 0.08 0.02 85 1006.7
20260506145204 56 291 5.2 12.2 0.00 0.08 0.02 86 1006.6
20260506144707 56 330 6.1 13.9 0.01 0.08 0.02 86 1006.5
20260506144204 56 288 7.0 13.9 0.01 0.08 0.02 84 1006.5
20260506143704 56 326 7.8 13.9 0.01 0.08 0.02 84 1006.4
20260506143204 56 271 7.8 12.2 0.01 0.08 0.02 83 1006.5
20260506142704 56 290 7.0 20.0 0.01 0.09 0.02 82 1006.5
20260506142204 56 270 7.8 20.0 0.01 0.09 0.02 82 1006.6
20260506141705 57 284 9.6 20.0 0.01 0.09 0.02 81 1006.6
20260506141204 58 304 9.6 17.4 0.01 0.10 0.02 78 1006.5
20260506140705 61 281 6.1 16.5 0.01 0.11 0.02 77 1006.5
20260506140204 62 302 2.6 5.2 0.01 0.12 0.02 78 1006.1
20260506135705 62 267 1.7 5.2 0.01 0.13 0.02 77 1006.0
20260506134704 62 355 2.6 3.5 0.00 0.13 0.02 75 1005.9
20260506134205 62 355 1.7 4.3 0.00 0.15 0.02 75 1005.9
20260506133704 63 355 1.7 4.3 0.00 0.16 0.02 74 1005.8
20260506132704 63 50 1.7 2.6 0.00 0.17 0.02 73 1005.8
20260506132205 63 74 1.7 2.6 0.00 0.18 0.02 74 1005.6
20260506131705 63 74 1.7 2.6 0.01 0.19 0.02 75 1005.6
20260506130705 63 74 1.7 2.6 0.01 0.20 0.02 73 1005.4
20260506130205 63 74 0.9 2.6 0.01 0.20 0.02 73 1005.4
20260506125704 63 74 0.9 2.6 0.01 0.20 0.02 73 1005.4
20260506125205 62 74 0.9 3.5 0.01 0.20 0.02 74 1005.3
20260506124205 62 74 1.7 3.5 0.01 0.20 0.02 73 1005.4
20260506123704 62 74 1.7 4.3 0.01 0.20 0.02 72 1005.3
20260506123204 62 74 1.7 4.3 0.01 0.20 0.02 72 1005.3
20260506122704 62 76 1.7 4.3 0.01 0.20 0.02 74 1005.3
20260506122204 63 76 0.9 4.3 0.01 0.20 0.02 73 1005.5
20260506121704 64 99 1.7 6.1 0.00 0.20 0.01 71 1005.4
20260506121205 64 98 1.7 6.1 0.00 0.20 0.01 71 1005.5
20260506120705 64 100 1.7 6.1 0.00 0.20 0.01 68 1005.5
20260506120205 64 114 1.7 6.1 0.00 0.20 0.01 67 1005.5
20260506115704 64 136 0.9 5.2 0.00 0.20 0.01 68 1005.6
20260506115204 64 129 0.9 4.3 0.00 0.20 0.01 67 1005.6
20260506114704 64 106 1.7 5.2 0.00 0.20 0.01 67 1005.6
20260506114205 65 117 1.7 6.1 0.00 0.20 0.01 66 1005.6
20260506113705 65 79 2.6 6.1 0.00 0.20 0.01 64 1005.5
20260506112705 66 94 1.7 4.3 0.00 0.20 0.01 65 1005.6
20260506112205 66 101 1.7 4.3 0.00 0.20 0.01 64 1005.6
20260506111705 66 101 1.7 5.2 0.00 0.20 0.01 66 1005.8
20260506111205 66 101 1.7 5.2 0.00 0.20 0.01 64 1005.9
20260506110733 66 98 1.7 5.2 0.00 0.20 0.01 65 1005.9
20260506110204 65 99 1.7 2.6 0.00 0.20 0.01 66 1005.9
20260506105704 65 343 0.9 5.2 0.00 0.20 0.01 67 1006.0
20260506105204 65 342 1.7 5.2 0.00 0.20 0.01 67 1006.1
20260506104704 65 342 1.7 5.2 0.00 0.20 0.01 68 1006.1
20260506104205 65 342 0.9 3.5 0.00 0.20 0.01 65 1006.1
20260506103705 65 342 0.9 4.3 0.00 0.20 0.01 68 1006.2
20260506103204 65 313 0.9 4.3 0.00 0.20 0.01 67 1006.2
20260506102704 65 313 1.7 4.3 0.00 0.20 0.01 67 1006.3
20260506102204 65 300 0.9 4.3 0.00 0.20 0.01 68 1006.3
20260506101704 65 296 2.6 4.3 0.00 0.20 0.01 69 1006.3
20260506101204 65 296 1.7 4.3 0.00 0.20 0.01 66 1006.3
20260506100705 64 300 0.9 3.5 0.00 0.20 0.01 68 1006.3
20260506095705 63 302 1.7 3.5 0.00 0.20 0.01 67 1006.3
20260506095205 63 302 1.7 4.3 0.00 0.20 0.01 68 1006.4
20260506094704 63 302 1.7 4.3 0.00 0.20 0.01 68 1006.4
20260506094205 64 300 1.7 4.3 0.00 0.20 0.01 67 1006.4
20260506093705 64 297 0.9 5.2 0.00 0.20 0.01 68 1006.4
20260506093204 63 296 1.7 5.2 0.00 0.20 0.01 69 1006.5
20260506092704 63 296 1.7 5.2 0.00 0.20 0.01 67 1006.4
20260506092205 63 333 1.7 4.3 0.00 0.20 0.01 70 1006.5
20260506091704 63 336 1.7 4.3 0.00 0.20 0.01 65 1006.4
20260506091204 63 336 1.7 5.2 0.00 0.20 0.01 67 1006.4
20260506090705 63 337 1.7 5.2 0.00 0.20 0.01 67 1006.3
20260506090205 63 339 1.7 5.2 0.00 0.20 0.01 68 1006.3
20260506085704 64 339 1.7 4.3 0.00 0.20 0.01 70 1006.4
20260506085205 63 355 0.9 4.3 0.00 0.20 0.01 70 1006.5
20260506084705 63 276 1.7 4.3 0.00 0.20 0.01 72 1006.5
20260506084205 62 318 0.9 6.1 0.00 0.20 0.01 74 1006.5
20260506083704 62 315 1.7 6.1 0.00 0.20 0.01 72 1006.5
20260506083204 62 335 1.7 6.1 0.00 0.20 0.01 69 1006.5
20260506082704 63 281 1.7 5.2 0.00 0.20 0.01 74 1006.5
20260506082205 62 321 1.7 5.2 0.00 0.20 0.01 74 1006.6
20260506081705 63 306 0.9 3.5 0.00 0.20 0.01 71 1006.6
20260506081205 62 217 0.0 1.7 0.00 0.20 0.01 78 1006.5
20260506080705 62 209 0.9 2.6 0.00 0.20 0.01 75 1006.7
20260506073204 59 226 0.9 4.3 0.00 0.20 0.01 79 1006.8